GW1765 Weather Reports


Display with metric or nautical units.
time (UTC)temp
F
wind
direction
speed
MPH
gust
MPH
rain 1hr
in
rain 24hr
in
rain mn
in
humidity
%
barometer
mb
20260902161055 53 315 4.0 8.0 0.00 0.07 0.00 94 1019.1
20260902160029 53 321 4.0 8.0 0.00 0.07 0.00 94 1019.0
20260902155025 53 326 3.0 5.0 0.00 0.07 0.00 94 1019.0
20260902153020 53 338 3.0 4.0 0.00 0.07 0.00 94 1019.2
20260902152116 53 0 2.0 4.0 0.00 0.07 0.00 94 1019.3
20260902150108 53 341 5.0 7.0 0.00 0.07 0.00 94 1019.3
20260902145146 53 344 4.0 7.0 0.00 0.07 0.00 94 1019.4
20260902144100 53 336 5.0 7.0 0.00 0.07 0.00 94 1019.5
20260902143115 52 345 5.0 8.0 0.00 0.07 0.00 93 1019.6
20260902142056 52 339 6.0 10.0 0.00 0.07 0.00 93 1019.7
20260902113056 50 70 2.0 3.0 0.00 0.11 0.11 91 1019.6
20260902112051 51 38 1.0 2.0 0.00 0.11 0.11 91 1019.5
20260902111048 51 37 2.0 3.0 0.00 0.11 0.11 91 1019.5
20260902110045 51 30 1.0 2.0 0.00 0.11 0.11 91 1019.5
20260902105041 51 15 1.0 2.0 0.00 0.11 0.11 91 1019.3
20260902104040 52 0 0.0 2.0 0.00 0.11 0.11 91 1019.4
20260902103055 52 0 0.0 2.0 0.00 0.11 0.11 90 1019.4
20260902102031 52 338 0.0 2.0 0.00 0.11 0.11 90 1019.3
20260902101027 51 0 0.0 2.0 0.00 0.11 0.11 90 1019.3
20260902100023 51 324 0.0 2.0 0.00 0.11 0.11 90 1019.3
20260902095020 52 318 2.0 3.0 0.00 0.11 0.11 90 1019.2
20260902094017 52 353 2.0 3.0 0.00 0.11 0.11 90 1019.1
20260902093114 52 333 3.0 4.0 0.00 0.11 0.11 90 1019.2
20260902092110 53 315 3.0 5.0 0.00 0.11 0.11 90 1019.2
20260902091106 53 305 4.0 5.0 0.00 0.11 0.11 90 1019.1
20260902085059 53 297 3.0 5.0 0.00 0.11 0.11 89 1019.1
20260902084139 53 315 2.0 4.0 0.00 0.11 0.11 89 1019.0
20260902083053 53 309 3.0 6.0 0.00 0.11 0.11 88 1019.1
20260902082049 53 310 3.0 4.0 0.00 0.11 0.11 87 1019.0
20260902081046 53 315 2.0 4.0 0.00 0.11 0.11 86 1018.9
20260902080044 53 318 2.0 4.0 0.00 0.11 0.11 86 1018.9
20260902075038 53 315 2.0 3.0 0.00 0.11 0.11 86 1018.9
20260902074036 53 320 2.0 4.0 0.00 0.11 0.11 86 1019.0
20260902073031 54 307 3.0 4.0 0.00 0.11 0.11 85 1019.0
20260902072029 54 315 4.0 7.0 0.00 0.11 0.11 85 1019.0
20260902071045 54 311 4.0 7.0 0.00 0.11 0.11 85 1019.0
20260902070041 54 315 3.0 5.0 0.00 0.11 0.11 85 1019.0
20260902065019 54 309 2.0 5.0 0.00 0.11 0.11 85 1019.0
20260902064114 54 323 4.0 7.0 0.00 0.11 0.11 84 1018.9
20260902063112 54 326 3.0 5.0 0.00 0.11 0.11 83 1018.9
20260902062108 54 315 4.0 8.0 0.00 0.11 0.11 82 1018.8
20260902061144 54 315 5.0 8.0 0.00 0.11 0.11 82 1018.7
20260902055056 55 275 4.0 8.0 0.00 0.11 0.11 78 1018.8
20260902054053 55 296 5.0 9.0 0.00 0.11 0.11 77 1018.8
20260902053049 55 275 5.0 8.0 0.00 0.11 0.11 76 1018.7
20260902052047 55 295 5.0 10.0 0.00 0.11 0.11 75 1018.6
20260902051043 56 285 4.0 9.0 0.00 0.11 0.11 73 1018.6
20260902050039 56 306 4.0 8.0 0.00 0.11 0.11 72 1018.7
20260902045035 56 275 2.0 4.0 0.00 0.11 0.11 71 1018.5
20260902044033 57 277 4.0 8.0 0.00 0.11 0.11 70 1018.4
20260902043028 57 270 4.0 9.0 0.00 0.11 0.11 68 1018.4
20260902042026 59 254 4.0 8.0 0.00 0.11 0.11 65 1018.5
20260902041022 60 250 3.0 8.0 0.00 0.11 0.11 65 1018.6
20260902040019 60 218 4.0 9.0 0.00 0.11 0.11 66 1018.7
20260902035114 59 284 7.0 13.0 0.00 0.11 0.11 64 1018.8
20260902034111 62 275 6.0 10.0 0.00 0.11 0.11 67 1018.9
20260902033108 60 266 4.0 8.0 0.00 0.11 0.11 70 1018.9
20260902032104 59 268 6.0 10.0 0.00 0.11 0.11 71 1018.8
20260902031142 59 285 5.0 12.0 0.00 0.11 0.11 71 1018.8
20260902030059 59 284 6.0 9.0 0.00 0.11 0.11 71 1018.8
20260902025053 59 303 5.0 10.0 0.00 0.11 0.11 71 1018.8
20260902024050 60 285 5.0 11.0 0.00 0.11 0.11 72 1018.8
20260902023108 60 278 5.0 11.0 0.00 0.11 0.11 71 1019.0
20260902022044 60 240 4.0 9.0 0.00 0.11 0.11 73 1018.8
20260902021041 59 277 6.0 11.0 0.00 0.11 0.11 71 1018.9
20260902020035 59 248 4.0 8.0 0.00 0.11 0.11 71 1019.1
20260902015054 60 242 4.0 8.0 0.00 0.11 0.11 72 1019.2
20260902014030 59 273 6.0 10.0 0.01 0.11 0.11 71 1019.4
20260902013027 61 281 5.0 8.0 0.01 0.11 0.11 76 1019.5
20260902012043 60 253 5.0 11.0 0.02 0.11 0.11 79 1019.5
20260902011018 58 273 4.0 8.0 0.02 0.11 0.11 76 1019.8
20260902010138 58 252 3.0 8.0 0.02 0.11 0.11 72 1019.9
20260902005132 60 236 6.0 13.0 0.02 0.11 0.11 70 1020.0
20260902004110 61 247 7.0 11.0 0.01 0.09 0.09 69 1020.0
20260902003105 62 253 6.0 11.0 0.01 0.09 0.09 70 1020.2
20260902002143 63 253 4.0 8.0 0.00 0.08 0.08 75 1020.2
20260902001120 60 178 6.0 9.0 0.01 0.08 0.08 77 1020.3
20260902000054 59 265 5.0 11.0 0.01 0.08 0.08 76 1020.6
20260901235052 59 236 5.0 11.0 0.01 0.08 0.08 78 1020.7
20260901234047 58 218 5.0 9.0 0.01 0.08 0.08 76 1020.6
20260901233044 57 225 7.0 11.0 0.01 0.08 0.08 72 1020.6
20260901232040 59 269 5.0 11.0 0.01 0.08 0.08 71 1020.4
20260901231039 60 225 7.0 11.0 0.00 0.07 0.07 71 1020.3
20260901230033 60 248 5.0 9.0 0.00 0.07 0.07 71 1020.4
20260901225031 61 242 5.0 11.0 0.00 0.07 0.07 71 1020.5
20260901224048 61 272 5.0 11.0 0.00 0.07 0.07 75 1020.5
20260901223023 59 253 4.0 11.0 0.00 0.07 0.07 78 1020.4
20260901222019 59 254 5.0 8.0 0.00 0.07 0.07 80 1020.5
20260901221016 58 225 6.0 10.0 0.00 0.07 0.07 83 1020.5
20260901220113 58 231 4.0 10.0 0.00 0.07 0.07 86 1020.6
20260901215129 58 220 7.0 10.0 0.00 0.07 0.07 90 1020.6
20260901214105 57 229 5.0 9.0 0.00 0.07 0.07 92 1020.6
20260901213104 58 205 6.0 8.0 0.00 0.07 0.07 94 1020.6
20260901212059 57 221 5.0 8.0 0.00 0.07 0.07 95 1020.7
20260901211057 56 229 4.0 8.0 0.00 0.07 0.07 94 1020.7
20260901210055 56 213 6.0 9.0 0.00 0.07 0.07 95 1020.8
20260901205049 56 198 5.0 8.0 0.00 0.07 0.07 95 1020.7
20260901204045 0 0.0 0.0 0.00 0.07 0.07 1020.6
20260901203102 0 0.0 0.0 0.00 0.07 0.07 1020.4
20260901202038 53 180 4.0 5.0 0.00 0.07 0.07 96 1020.4
20260901201034 52 185 4.0 7.0 0.00 0.07 0.07 96 1020.3
20260901200032 52 180 3.0 4.0 0.00 0.07 0.07 95 1020.4
20260901195030 51 211 5.0 15.0 0.00 0.07 0.07 95 1020.4
20260901194024 51 112 1.0 3.0 0.00 0.07 0.07 95 1020.2
20260901193022 51 93 1.0 2.0 0.00 0.07 0.07 94 1020.0
20260901192018 51 153 0.0 2.0 0.01 0.07 0.07 94 1020.0
20260901191114 50 210 1.0 3.0 0.01 0.07 0.07 94 1020.0
20260901190113 51 217 0.0 2.0 0.01 0.07 0.07 94 1019.9
20260901185109 51 217 2.0 4.0 0.01 0.07 0.07 94 1019.8
20260901184103 51 164 1.0 4.0 0.02 0.07 0.07 94 1019.9
20260901183102 51 135 1.0 4.0 0.04 0.07 0.07 94 1019.8
20260901182058 51 216 2.0 4.0 0.02 0.06 0.06 93 1019.9
20260901181052 51 226 4.0 5.0 0.02 0.06 0.06 93 1019.7
20260901180050 51 239 3.0 9.0 0.02 0.06 0.06 93 1019.7
20260901175046 51 248 1.0 3.0 0.02 0.06 0.06 93 1019.5
20260901174042 51 135 0.0 2.0 0.01 0.05 0.05 93 1019.5
20260901173039 51 182 2.0 4.0 0.00 0.04 0.04 93 1019.5
20260901172037 51 216 3.0 6.0 0.00 0.04 0.04 93 1019.5
20260901171031 51 235 5.0 8.0 0.00 0.04 0.04 92 1019.3
20260901170048 50 247 1.0 4.0 0.00 0.04 0.04 92 1019.2
20260901165026 50 203 1.0 3.0 0.00 0.04 0.04 92 1019.1
20260901164043 50 203 1.0 2.0 0.00 0.04 0.04 92 1019.1
20260901163017 50 198 2.0 3.0 0.00 0.04 0.04 92 1019.0
20260901162117 50 225 2.0 4.0 0.00 0.04 0.04 91 1019.0